{"data":{"norad_id":40019,"epoch":"2026-09-20T03:47:28.002336Z","epoch_age_seconds":43973,"freshness":"FRESH","line1":"1 40019U 14033K   26263.15796299  .00000233  00000+0  44759-4 0  9992","line2":"2 40019  97.9769  28.0633 0077977 331.4503  28.2443 14.70968705656211","mean_motion":14.70968705,"eccentricity":0.0077977,"inclination_deg":97.9769,"raan_deg":28.0633,"arg_perigee_deg":331.4503,"mean_anomaly_deg":28.2443,"bstar":4.4759e-5,"rev_number":65621,"period_min":97.894672749003,"perigee_km":603.11179190459,"apogee_km":712.84280886481,"semimajor_km":7036.1143003847,"source":"CELESTRAK","updated_at":"2026-09-20T09:00:47.445624Z"}}